Time,TemperatureF,DewpointF,PressureIn,WindDirection,WindDirectionDegrees,WindSpeedMPH,WindSpeedGustMPH,Humidity,HourlyPrecipIn,Conditions,Clouds,dailyrainin,SoftwareType,DateUTC
2013-04-21 00:00:00,60.7,53.8,30.20,NNE,25,8.0,18.0,78,0.00,,---,0.46,VWS V14.01,2013-04-21 04:00:00,
2013-04-21 01:00:00,61.3,55.1,30.19,North,350,13.0,16.0,80,0.00,,---,0.00,VWS V14.01,2013-04-21 05:00:00,
2013-04-21 02:00:00,61.5,54.9,30.18,NNW,338,10.0,18.0,79,0.00,,---,0.00,VWS V14.01,2013-04-21 06:00:00,
2013-04-21 03:00:00,61.6,54.0,30.16,North,9,7.0,20.0,76,0.00,,---,0.00,VWS V14.01,2013-04-21 07:00:00,
2013-04-21 04:00:00,61.8,54.5,30.16,NNE,19,15.0,19.0,77,0.00,,---,0.00,VWS V14.01,2013-04-21 08:00:00,
2013-04-21 05:00:00,62.1,54.8,30.15,NNE,32,14.0,21.0,77,0.00,,---,0.00,VWS V14.01,2013-04-21 09:00:00,
2013-04-21 06:00:00,62.3,54.7,30.16,North,11,6.0,23.0,76,0.00,,---,0.00,VWS V14.01,2013-04-21 10:00:00,
2013-04-21 07:00:00,62.5,56.2,30.17,North,360,4.0,19.0,80,0.00,,---,0.00,VWS V14.01,2013-04-21 11:00:00,
2013-04-21 08:00:00,63.6,57.3,30.17,NNW,341,12.0,21.0,80,0.00,,---,0.00,VWS V14.01,2013-04-21 12:00:00,
2013-04-21 09:00:00,64.2,57.6,30.18,NE,36,12.0,21.0,79,0.00,,---,0.00,VWS V14.01,2013-04-21 13:00:00,
2013-04-21 10:00:00,66.0,59.3,30.18,NE,37,9.0,21.0,79,0.00,,---,0.00,VWS V14.01,2013-04-21 14:00:00,
2013-04-21 11:00:00,66.2,59.9,30.21,North,350,6.0,20.0,80,0.00,,---,0.00,VWS V14.01,2013-04-21 15:00:00,
2013-04-21 12:00:00,67.5,61.5,30.20,NNE,17,8.0,20.0,81,0.00,,---,0.00,VWS V14.01,2013-04-21 16:00:00,
2013-04-21 13:00:00,66.5,61.5,30.20,NNW,341,7.0,21.0,84,0.00,,---,0.00,VWS V14.01,2013-04-21 17:00:00,
2013-04-21 14:00:00,66.8,61.8,30.18,NW,326,10.0,20.0,84,0.00,,---,0.00,VWS V14.01,2013-04-21 18:00:00,
2013-04-21 15:00:00,67.0,62.3,30.16,NE,42,12.0,24.0,85,0.00,,---,0.00,VWS V14.01,2013-04-21 19:00:00,
2013-04-21 16:00:00,67.3,62.0,30.14,NE,36,16.0,23.0,83,0.00,,---,0.00,VWS V14.01,2013-04-21 20:00:00,
2013-04-21 17:00:00,67.2,62.2,30.11,NNE,29,18.0,25.0,84,0.00,,---,0.00,VWS V14.01,2013-04-21 21:00:00,
2013-04-21 18:00:00,66.4,62.4,30.15,North,360,14.0,26.0,87,0.00,,---,0.00,VWS V14.01,2013-04-21 22:00:00,
2013-04-21 19:00:00,65.8,62.5,30.14,NNE,30,25.0,27.0,89,0.00,,---,0.00,VWS V14.01,2013-04-21 23:00:00,
2013-04-21 20:00:00,66.1,63.1,30.16,NE,42,14.0,27.0,90,0.00,,---,0.00,VWS V14.01,2013-04-22 00:00:00,
2013-04-21 21:00:00,65.7,62.7,30.16,NNE,16,14.0,23.0,90,0.00,,---,0.00,VWS V14.01,2013-04-22 01:00:00,
2013-04-21 22:00:00,65.5,62.8,30.15,North,5,10.0,27.0,91,0.00,,---,0.00,VWS V14.01,2013-04-22 02:00:00,
2013-04-21 23:00:00,65.5,63.1,30.13,NNE,24,17.0,25.0,92,0.00,,---,0.00,VWS V14.01,2013-04-22 03:00:00,